Tracking 30923 objects as of 1-Jul-2025
HD Live streaming from Space Station
objects crossing your sky now

NOAA 16 DEB

Track NOAA 16 DEB now!
10-day predictions


NORAD ID: 41091
Int'l Code: 2000-055BA
Perigee: 764.1 km
Apogee: 830.3 km
Inclination: 99.0 °
Period: 100.7 minutes
Semi major axis: 7168 km
RCS: Unknown
Launch date: September 21, 2000
Source: United States (US)
Launch site: AIR FORCE WESTERN TEST RANGE (AFWTR)

Note: This is SATELLITE DEBRIS
Your satellite tracking list
Your tracking list is empty




NASA's NSSDC Master Catalog

Two Line Element Set (TLE):
1 41091U 00055BA  25181.26182529  .00005262  00000-0  20131-2 0  9991
2 41091  98.9659 293.3156 0046151 123.3174 237.2439 14.30496952493043
Source of the keplerian elements: AFSPC